AV636 Weather Reports


time (UTC)temp
C
wind
direction
speed
KPH
gust
KPH
rain 1hr
cm
rain 24hr
cm
rain mn
cm
humidity
%
barometer
mb
20260505011516 23 158 11.3 19.3 0.00 0.00 0.00 58 1001.0
20260505010516 24 180 8.0 12.9 0.00 0.00 0.00 57 1000.9
20260505005535 25 158 14.5 19.3 0.00 0.00 0.00 56 1000.7
20260505004516 25 158 14.5 17.7 0.00 0.00 0.00 55 1000.6
20260505003516 25 158 14.5 19.3 0.00 0.00 0.00 54 1000.6
20260505002516 25 180 11.3 16.1 0.00 0.00 0.00 54 1000.9
20260505001515 25 180 12.9 20.9 0.00 0.00 0.00 53 1001.2
20260505000515 26 180 14.5 20.9 0.00 0.00 0.00 52 1001.1
20260504235516 26 180 14.5 27.4 0.00 0.00 0.00 52 1000.9
20260504234516 26 180 19.3 27.4 0.00 0.00 0.00 51 1001.1
20260504233515 26 180 20.9 32.2 0.00 0.00 0.00 50 1001.0
20260504232516 27 180 14.5 27.4 0.00 0.00 0.00 50 1001.2
20260504231516 27 180 17.7 25.7 0.00 0.00 0.00 49 1001.2
20260504230515 27 203 20.9 30.6 0.00 0.00 0.00 50 1001.1
20260504225515 27 203 14.5 22.5 0.00 0.00 0.00 49 1001.2
20260504224515 27 180 20.9 27.4 0.00 0.00 0.00 48 1001.1
20260504223515 27 180 22.5 33.8 0.00 0.00 0.00 47 1001.2
20260504222515 28 158 20.9 33.8 0.00 0.00 0.00 47 1001.1
20260504221515 28 180 19.3 25.7 0.00 0.00 0.00 46 1001.1
20260504220515 29 180 17.7 25.7 0.00 0.00 0.00 45 1001.0
20260504215535 29 158 14.5 20.9 0.00 0.00 0.00 45 1001.1
20260504214535 29 158 17.7 25.7 0.00 0.00 0.00 42 1001.2
20260504213515 30 180 14.5 19.3 0.00 0.00 0.00 42 1001.5
20260504212535 29 180 8.0 16.1 0.00 0.00 0.00 45 1001.4
20260504211636 28 180 6.4 9.7 0.00 0.00 0.00 46 1001.8
20260504210535 28 203 9.7 14.5 0.00 0.00 0.00 45 1001.8
20260504205515 28 180 8.0 12.9 0.00 0.00 0.00 43 1002.0
20260504204515 28 203 6.4 9.7 0.00 0.00 0.00 43 1002.1
20260504203535 28 113 1.6 1.6 0.00 0.00 0.00 40 1002.3
20260504202535 28 158 12.9 16.1 0.00 0.00 0.00 43 1002.6
20260504201515 28 180 9.7 11.3 0.00 0.00 0.00 48 1002.8
20260504200515 28 158 6.4 9.7 0.00 0.00 0.00 43 1002.7
20260504195515 27 203 6.4 8.0 0.00 0.00 0.00 46 1002.8
20260504194515 27 180 9.7 14.5 0.00 0.00 0.00 45 1003.2
20260504193535 27 225 11.3 17.7 0.00 0.00 0.00 46 1003.3
20260504192535 27 203 11.3 17.7 0.00 0.00 0.00 49 1003.4
20260504191517 26 225 6.4 9.7 0.00 0.00 0.00 48 1003.5
20260504190537 27 225 1.6 4.8 0.00 0.00 0.00 46 1003.6
20260504185557 26 248 17.7 20.9 0.00 0.00 0.00 47 1003.9
20260504184517 26 248 12.9 16.1 0.00 0.00 0.00 51 1004.0
20260504183517 26 203 14.5 19.3 0.00 0.00 0.00 49 1004.0
20260504182517 26 203 11.3 16.1 0.00 0.00 0.00 48 1004.2
20260504181517 25 225 9.7 12.9 0.00 0.00 0.00 50 1004.1
20260504180517 25 203 9.7 12.9 0.00 0.00 0.00 51 1004.2
20260504175517 25 203 12.9 16.1 0.00 0.00 0.00 51 1004.1
20260504174537 25 203 12.9 19.3 0.00 0.00 0.00 54 1004.1
20260504173517 25 225 16.1 22.5 0.00 0.00 0.00 51 1004.2
20260504172517 25 225 17.7 22.5 0.00 0.00 0.00 51 1004.3
20260504171517 24 203 12.9 16.1 0.00 0.00 0.00 52 1004.1
20260504170537 23 248 14.5 24.1 0.00 0.00 0.00 53 1004.3
20260504150557 21 225 17.7 24.1 0.00 0.00 0.00 57 1003.8
20260504140517 20 225 19.3 24.1 0.00 0.00 0.00 59 1004.1
20260504130516 17 203 24.1 30.6 0.00 0.00 0.00 61 1004.2
20260504110516 17 203 16.1 22.5 0.00 0.00 0.00 59 1004.5
20260504100516 18 203 17.7 24.1 0.00 0.00 0.00 55 1005.0
20260504081516 19 203 25.7 33.8 0.00 0.00 0.00 52 1006.0
20260504080516 19 203 22.5 30.6 0.00 0.00 0.00 51 1006.1
20260504050516 21 203 24.1 33.8 0.00 0.00 0.00 46 1007.9
20260504045517 21 203 20.9 33.8 0.00 0.00 0.00 46 1007.8
20260504044517 21 203 20.9 27.4 0.00 0.00 0.00 45 1007.9
20260504043517 21 180 20.9 32.2 0.00 0.00 0.00 44 1008.0
20260504042515 21 203 20.9 29.0 0.00 0.00 0.00 44 1007.8
20260504041517 21 203 22.5 32.2 0.00 0.00 0.00 44 1008.0
20260504040517 21 180 17.7 20.9 0.00 0.00 0.00 44 1007.9
20260504035517 21 180 16.1 24.1 0.00 0.00 0.00 44 1008.0
20260504034517 21 203 17.7 22.5 0.00 0.00 0.00 44 1007.8
20260504033557 21 203 17.7 25.7 0.00 0.00 0.00 44 1007.7
20260504032517 21 180 16.1 22.5 0.00 0.00 0.00 44 1007.7
20260504031537 21 180 11.3 17.7 0.00 0.00 0.00 44 1008.0
20260504030517 21 158 9.7 14.5 0.00 0.00 0.00 43 1007.9
20260504025516 22 180 9.7 16.1 0.00 0.00 0.00 41 1008.0
20260504024517 22 180 11.3 16.1 0.00 0.00 0.00 40 1008.0
20260504023517 22 180 12.9 19.3 0.00 0.00 0.00 39 1007.8
20260504022517 22 180 14.5 17.7 0.00 0.00 0.00 39 1007.6
20260504021516 22 180 11.3 16.1 0.00 0.00 0.00 38 1007.5
20260504020516 22 180 11.3 14.5 0.00 0.00 0.00 38 1007.3
20260504015517 23 203 11.3 14.5 0.00 0.00 0.00 38 1007.5
20260504014557 23 180 12.9 16.1 0.00 0.00 0.00 37 1007.4
20260504013517 23 203 11.3 17.7 0.00 0.00 0.00 36 1007.3
20260504012517 24 203 11.3 16.1 0.00 0.00 0.00 35 1007.2